Time,TemperatureF,DewpointF,PressureIn,WindDirection,WindDirectionDegrees,WindSpeedMPH,WindSpeedGustMPH,Humidity,HourlyPrecipIn,Conditions,Clouds,dailyrainin,SoftwareType,DateUTC
2013-03-19 00:03:00,30.0,25.0,30.17,ENE,57,3.0,8.0,82,0.00,,,0.00,,2013-03-19 04:03:00,
2013-03-19 00:13:00,30.0,25.0,30.17,ENE,57,3.0,8.0,82,0.00,,,0.00,,2013-03-19 04:13:00,
2013-03-19 00:23:00,30.0,25.0,30.17,East,101,3.0,10.0,82,0.00,,,0.00,,2013-03-19 04:23:00,
2013-03-19 00:34:00,29.0,25.0,30.15,East,95,2.0,11.0,85,0.00,,,0.00,,2013-03-19 04:34:00,
2013-03-19 00:43:00,29.0,25.0,30.15,East,95,2.0,11.0,85,0.00,,,0.00,,2013-03-19 04:43:00,
2013-03-19 00:52:00,29.0,25.0,30.14,NE,55,6.0,10.0,86,0.00,,,0.00,,2013-03-19 04:52:00,
2013-03-19 01:02:00,28.0,25.0,30.13,ESE,106,1.0,8.0,88,0.00,,,0.00,,2013-03-19 05:02:00,
2013-03-19 01:12:00,28.0,25.0,30.13,ESE,106,1.0,8.0,88,0.00,,,0.00,,2013-03-19 05:12:00,
2013-03-19 01:22:00,28.0,25.0,30.12,ENE,77,5.0,11.0,88,0.00,,,0.00,,2013-03-19 05:22:00,
2013-03-19 01:32:00,28.0,25.0,30.10,SE,144,4.0,10.0,89,0.00,,,0.00,,2013-03-19 05:32:00,
2013-03-19 01:43:00,28.0,25.0,30.10,SE,144,4.0,10.0,89,0.00,,,0.00,,2013-03-19 05:43:00,
2013-03-19 01:52:00,28.0,25.0,30.09,ENE,75,5.0,14.0,90,0.00,,,0.00,,2013-03-19 05:52:00,
2013-03-19 02:02:00,29.0,26.0,30.07,NE,34,7.0,12.0,90,0.00,,,0.00,,2013-03-19 06:02:00,
2013-03-19 02:12:00,29.0,26.0,30.07,NE,34,7.0,12.0,90,0.00,,,0.00,,2013-03-19 06:12:00,
2013-03-19 02:22:00,29.0,26.0,30.06,ENE,73,6.0,12.0,90,0.00,,,0.00,,2013-03-19 06:22:00,
2013-03-19 02:32:00,29.0,26.0,30.06,ENE,77,4.0,10.0,90,0.00,,,0.00,,2013-03-19 06:32:00,
2013-03-19 02:42:00,29.0,26.0,30.06,ENE,77,4.0,10.0,90,0.00,,,0.00,,2013-03-19 06:42:00,
2013-03-19 02:52:00,29.0,26.0,30.05,East,80,4.0,9.0,90,0.00,,,0.00,,2013-03-19 06:52:00,
2013-03-19 03:02:00,29.0,27.0,30.03,East,99,3.0,10.0,91,0.00,,,0.00,,2013-03-19 07:02:00,
2013-03-19 03:12:00,29.0,27.0,30.03,East,99,3.0,10.0,91,0.00,,,0.00,,2013-03-19 07:12:00,
2013-03-19 03:22:00,29.0,27.0,30.03,East,90,2.0,6.0,91,0.00,,,0.00,,2013-03-19 07:22:00,
2013-03-19 03:32:00,29.0,27.0,30.02,ESE,102,3.0,7.0,91,0.00,,,0.00,,2013-03-19 07:32:00,
2013-03-19 03:42:00,29.0,27.0,30.02,ESE,102,3.0,7.0,91,0.00,,,0.00,,2013-03-19 07:42:00,
2013-03-19 03:52:00,29.0,27.0,30.02,NE,56,3.0,11.0,91,0.00,,,0.00,,2013-03-19 07:52:00,
2013-03-19 04:03:00,29.0,27.0,30.01,ENE,61,3.0,11.0,91,0.00,,,0.00,,2013-03-19 08:03:00,
2013-03-19 04:12:00,29.0,27.0,30.01,ENE,61,3.0,11.0,91,0.00,,,0.00,,2013-03-19 08:12:00,
2013-03-19 04:22:00,29.0,27.0,30.00,East,82,1.0,14.0,91,0.00,,,0.00,,2013-03-19 08:22:00,
2013-03-19 04:32:00,29.0,27.0,29.99,East,91,5.0,11.0,91,0.00,,,0.00,,2013-03-19 08:32:00,
2013-03-19 04:42:00,29.0,27.0,29.99,East,91,5.0,11.0,91,0.00,,,0.00,,2013-03-19 08:42:00,
2013-03-19 04:52:00,29.0,27.0,29.98,East,100,4.0,13.0,91,0.00,,,0.00,,2013-03-19 08:52:00,
2013-03-19 05:03:00,30.0,28.0,29.97,ENE,73,6.0,16.0,91,0.00,,,0.00,,2013-03-19 09:03:00,
2013-03-19 05:12:00,30.0,28.0,29.97,ENE,73,6.0,16.0,91,0.00,,,0.00,,2013-03-19 09:12:00,
2013-03-19 05:22:00,30.0,28.0,29.97,NNE,33,4.0,19.0,91,0.00,,,0.00,,2013-03-19 09:22:00,
2013-03-19 05:33:00,30.0,28.0,29.97,SE,124,4.0,14.0,91,0.00,,,0.00,,2013-03-19 09:33:00,
2013-03-19 05:43:00,30.0,28.0,29.97,SE,124,4.0,14.0,91,0.00,,,0.00,,2013-03-19 09:43:00,
2013-03-19 05:52:00,30.0,28.0,29.97,ESE,114,5.0,13.0,91,0.00,,,0.00,,2013-03-19 09:52:00,
2013-03-19 06:04:00,30.0,28.0,29.96,East,80,3.0,11.0,91,0.00,,,0.00,,2013-03-19 10:04:00,
2013-03-19 06:13:00,30.0,28.0,29.96,East,80,3.0,11.0,91,0.00,,,0.00,,2013-03-19 10:13:00,
2013-03-19 06:23:00,30.0,28.0,29.96,East,80,3.0,11.0,91,0.00,,,0.00,,2013-03-19 10:23:00,
2013-03-19 06:33:00,31.0,29.0,29.94,NE,46,4.0,15.0,91,0.00,,,0.00,,2013-03-19 10:33:00,
2013-03-19 06:42:00,31.0,29.0,29.94,NE,46,4.0,15.0,91,0.00,,,0.00,,2013-03-19 10:42:00,
2013-03-19 06:53:00,31.0,29.0,29.94,ENE,65,2.0,14.0,91,0.00,,,0.00,,2013-03-19 10:53:00,
2013-03-19 07:03:00,31.0,29.0,29.93,East,95,4.0,12.0,92,0.00,,,0.00,,2013-03-19 11:03:00,
2013-03-19 07:12:00,31.0,29.0,29.93,East,95,4.0,12.0,92,0.00,,,0.00,,2013-03-19 11:12:00,
2013-03-19 07:22:00,31.0,29.0,29.92,East,93,9.0,16.0,92,0.00,,,0.00,,2013-03-19 11:22:00,
2013-03-19 07:33:00,31.0,29.0,29.92,NE,44,1.0,13.0,92,0.00,,,0.00,,2013-03-19 11:33:00,
2013-03-19 07:43:00,31.0,29.0,29.92,NE,44,1.0,13.0,92,0.00,,,0.00,,2013-03-19 11:43:00,
2013-03-19 07:52:00,31.0,29.0,29.91,ENE,63,3.0,13.0,92,0.00,,,0.00,,2013-03-19 11:52:00,
2013-03-19 08:02:00,31.0,29.0,29.90,East,85,9.0,17.0,92,0.00,,,0.00,,2013-03-19 12:02:00,
2013-03-19 08:12:00,31.0,29.0,29.90,ENE,71,10.0,17.0,92,0.00,,,0.00,,2013-03-19 12:12:00,
2013-03-19 08:22:00,31.0,29.0,29.90,ENE,71,10.0,17.0,92,0.00,,,0.00,,2013-03-19 12:22:00,
2013-03-19 08:33:00,32.0,30.0,29.88,NE,52,5.0,14.0,92,0.00,,,0.00,,2013-03-19 12:33:00,
2013-03-19 08:42:00,32.0,30.0,29.88,NE,52,5.0,14.0,92,0.00,,,0.00,,2013-03-19 12:42:00,
2013-03-19 08:52:00,32.0,30.0,29.88,NNE,22,6.0,13.0,92,0.00,,,0.00,,2013-03-19 12:52:00,
2013-03-19 09:02:00,32.0,30.0,29.86,ENE,63,3.0,12.0,92,0.00,,,0.00,,2013-03-19 13:02:00,
2013-03-19 09:12:00,32.0,30.0,29.86,ENE,63,3.0,12.0,92,0.00,,,0.00,,2013-03-19 13:12:00,
2013-03-19 09:22:00,32.0,30.0,29.86,East,83,8.0,15.0,92,0.00,,,0.00,,2013-03-19 13:22:00,
2013-03-19 09:33:00,32.0,30.0,29.84,ESE,103,8.0,12.0,92,0.00,,,0.00,,2013-03-19 13:33:00,
2013-03-19 09:42:00,32.0,30.0,29.84,ESE,103,8.0,12.0,92,0.00,,,0.00,,2013-03-19 13:42:00,
2013-03-19 09:52:00,33.0,31.0,29.84,East,82,6.0,14.0,92,0.00,,,0.00,,2013-03-19 13:52:00,
2013-03-19 10:02:00,33.0,31.0,29.82,NE,51,5.0,16.0,92,0.00,,,0.00,,2013-03-19 14:02:00,
2013-03-19 10:12:00,33.0,31.0,29.82,NE,51,5.0,16.0,92,0.00,,,0.00,,2013-03-19 14:12:00,
2013-03-19 10:22:00,33.0,31.0,29.81,NE,36,7.0,17.0,92,0.00,,,0.00,,2013-03-19 14:22:00,
2013-03-19 10:32:00,33.0,31.0,29.80,East,93,12.0,20.0,92,0.00,,,0.00,,2013-03-19 14:32:00,
2013-03-19 10:42:00,33.0,31.0,29.80,East,93,12.0,20.0,92,0.00,,,0.00,,2013-03-19 14:42:00,
2013-03-19 10:52:00,34.0,32.0,29.79,East,95,9.0,15.0,92,0.00,,,0.00,,2013-03-19 14:52:00,
2013-03-19 11:02:00,34.0,32.0,29.78,NE,44,7.0,16.0,93,0.01,,,0.01,,2013-03-19 15:02:00,
2013-03-19 11:12:00,34.0,32.0,29.78,NE,44,7.0,16.0,93,0.01,,,0.01,,2013-03-19 15:12:00,
2013-03-19 11:22:00,34.0,32.0,29.78,NE,53,6.0,19.0,92,0.01,,,0.01,,2013-03-19 15:22:00,
2013-03-19 11:34:00,34.0,32.0,29.77,NE,55,9.0,15.0,93,0.01,,,0.01,,2013-03-19 15:34:00,
2013-03-19 11:43:00,34.0,32.0,29.77,NE,55,9.0,15.0,93,0.01,,,0.01,,2013-03-19 15:43:00,
2013-03-19 11:53:00,34.0,32.0,29.76,ENE,67,5.0,17.0,92,0.01,,,0.01,,2013-03-19 15:53:00,
2013-03-19 12:04:00,35.0,33.0,29.74,ENE,57,9.0,17.0,92,0.00,,,0.01,,2013-03-19 16:04:00,
2013-03-19 12:13:00,35.0,33.0,29.74,ENE,57,9.0,17.0,92,0.00,,,0.01,,2013-03-19 16:13:00,
2013-03-19 12:24:00,35.0,33.0,29.73,ENE,65,7.0,18.0,93,0.00,,,0.01,,2013-03-19 16:24:00,
2013-03-19 12:34:00,35.0,33.0,29.72,ENE,57,11.0,20.0,92,0.00,,,0.01,,2013-03-19 16:34:00,
2013-03-19 12:44:00,35.0,33.0,29.72,ENE,57,11.0,20.0,92,0.00,,,0.01,,2013-03-19 16:44:00,
2013-03-19 12:54:00,36.0,34.0,29.71,ENE,78,9.0,17.0,92,0.00,,,0.01,,2013-03-19 16:54:00,
2013-03-19 13:03:00,36.0,34.0,29.69,NE,45,8.0,16.0,92,0.00,,,0.01,,2013-03-19 17:03:00,
2013-03-19 13:13:00,36.0,34.0,29.68,ENE,59,8.0,19.0,92,0.00,,,0.01,,2013-03-19 17:13:00,
2013-03-19 13:23:00,36.0,34.0,29.68,ENE,59,8.0,19.0,92,0.00,,,0.01,,2013-03-19 17:23:00,
2013-03-19 13:34:00,36.0,34.0,29.66,NE,49,10.0,17.0,92,0.00,,,0.01,,2013-03-19 17:34:00,
2013-03-19 13:44:00,36.0,34.0,29.66,NE,49,10.0,17.0,92,0.00,,,0.01,,2013-03-19 17:44:00,
2013-03-19 13:53:00,37.0,35.0,29.65,NE,52,8.0,26.0,92,0.00,,,0.01,,2013-03-19 17:53:00,
2013-03-19 14:03:00,37.0,35.0,29.63,East,82,5.0,23.0,92,0.00,,,0.01,,2013-03-19 18:03:00,
2013-03-19 14:13:00,37.0,35.0,29.63,East,82,5.0,23.0,92,0.00,,,0.01,,2013-03-19 18:13:00,
2013-03-19 14:23:00,37.0,35.0,29.62,East,101,11.0,17.0,92,0.00,,,0.01,,2013-03-19 18:23:00,
2013-03-19 14:34:00,37.0,35.0,29.62,NE,36,7.0,14.0,93,0.00,,,0.01,,2013-03-19 18:34:00,
2013-03-19 14:43:00,37.0,35.0,29.62,NE,36,7.0,14.0,93,0.00,,,0.01,,2013-03-19 18:43:00,
2013-03-19 14:53:00,37.0,35.0,29.60,NE,46,7.0,17.0,92,0.00,,,0.01,,2013-03-19 18:53:00,
2013-03-19 15:03:00,36.0,34.0,29.63,North,5,5.0,11.0,93,0.00,,,0.01,,2013-03-19 19:03:00,
2013-03-19 15:12:00,36.0,34.0,29.63,North,5,5.0,11.0,93,0.00,,,0.01,,2013-03-19 19:12:00,
2013-03-19 15:22:00,37.0,35.0,29.63,North,5,9.0,15.0,93,0.00,,,0.01,,2013-03-19 19:22:00,
2013-03-19 15:33:00,36.0,34.0,29.61,North,355,7.0,19.0,93,0.00,,,0.01,,2013-03-19 19:33:00,
2013-03-19 15:42:00,36.0,34.0,29.61,North,355,7.0,19.0,93,0.00,,,0.01,,2013-03-19 19:42:00,
2013-03-19 15:52:00,36.0,34.0,29.62,NNE,23,9.0,17.0,93,0.00,,,0.01,,2013-03-19 19:52:00,
2013-03-19 16:03:00,35.0,33.0,29.59,NNE,13,14.0,24.0,93,0.00,,,0.01,,2013-03-19 20:03:00,
2013-03-19 16:12:00,35.0,33.0,29.56,NE,50,11.0,24.0,93,0.00,,,0.01,,2013-03-19 20:12:00,
2013-03-19 16:22:00,35.0,33.0,29.56,NE,50,11.0,24.0,93,0.00,,,0.01,,2013-03-19 20:22:00,
2013-03-19 16:33:00,35.0,33.0,29.55,NNW,333,10.0,24.0,93,0.00,,,0.01,,2013-03-19 20:33:00,
2013-03-19 16:43:00,35.0,33.0,29.55,NNW,333,10.0,24.0,93,0.00,,,0.01,,2013-03-19 20:43:00,
2013-03-19 16:52:00,35.0,33.0,29.56,NNE,28,7.0,22.0,93,0.00,,,0.01,,2013-03-19 20:52:00,
2013-03-19 17:02:00,34.0,32.0,29.54,NE,36,10.0,20.0,93,0.00,,,0.01,,2013-03-19 21:02:00,
2013-03-19 17:12:00,34.0,32.0,29.52,NE,35,8.0,23.0,93,0.00,,,0.01,,2013-03-19 21:12:00,
2013-03-19 17:23:00,34.0,32.0,29.52,NE,35,8.0,23.0,93,0.00,,,0.01,,2013-03-19 21:23:00,
2013-03-19 17:34:00,34.0,32.0,29.53,NE,34,9.0,23.0,93,0.00,,,0.01,,2013-03-19 21:34:00,
2013-03-19 17:43:00,34.0,32.0,29.53,NE,34,9.0,23.0,93,0.00,,,0.01,,2013-03-19 21:43:00,
2013-03-19 17:52:00,34.0,32.0,29.53,NE,44,10.0,23.0,93,0.00,,,0.01,,2013-03-19 21:52:00,
2013-03-19 18:03:00,34.0,32.0,29.54,NNE,13,10.0,23.0,93,0.00,,,0.01,,2013-03-19 22:03:00,
2013-03-19 18:13:00,34.0,32.0,29.54,NNE,30,9.0,20.0,93,0.00,,,0.01,,2013-03-19 22:13:00,
2013-03-19 18:23:00,34.0,32.0,29.54,NNE,30,9.0,20.0,93,0.00,,,0.01,,2013-03-19 22:23:00,
2013-03-19 18:33:00,34.0,32.0,29.56,NNW,346,6.0,23.0,93,0.00,,,0.01,,2013-03-19 22:33:00,
2013-03-19 18:43:00,34.0,32.0,29.56,North,5,8.0,17.0,93,0.00,,,0.01,,2013-03-19 22:43:00,
2013-03-19 18:53:00,34.0,32.0,29.56,North,5,8.0,17.0,93,0.00,,,0.01,,2013-03-19 22:53:00,
2013-03-19 19:03:00,34.0,32.0,29.56,NNW,346,6.0,14.0,93,0.00,,,0.01,,2013-03-19 23:03:00,
2013-03-19 19:12:00,34.0,32.0,29.57,NNE,23,7.0,14.0,93,0.00,,,0.01,,2013-03-19 23:12:00,
2013-03-19 19:22:00,34.0,32.0,29.57,NNE,23,7.0,14.0,93,0.00,,,0.01,,2013-03-19 23:22:00,
2013-03-19 19:33:00,33.0,31.0,29.57,NNW,327,7.0,14.0,93,0.00,,,0.01,,2013-03-19 23:33:00,
2013-03-19 19:42:00,33.0,31.0,29.57,NNW,327,7.0,14.0,93,0.00,,,0.01,,2013-03-19 23:42:00,
2013-03-19 19:52:00,33.0,31.0,29.57,NNW,344,6.0,17.0,93,0.00,,,0.01,,2013-03-19 23:52:00,
2013-03-19 20:03:00,33.0,31.0,29.56,NNW,334,10.0,17.0,93,0.00,,,0.01,,2013-03-20 00:03:00,
2013-03-19 20:13:00,33.0,31.0,29.56,NNW,334,10.0,17.0,93,0.00,,,0.01,,2013-03-20 00:13:00,
2013-03-19 20:22:00,33.0,31.0,29.56,NW,309,3.0,12.0,93,0.00,,,0.01,,2013-03-20 00:22:00,
2013-03-19 20:33:00,33.0,31.0,29.56,NW,315,5.0,12.0,93,0.00,,,0.01,,2013-03-20 00:33:00,
2013-03-19 20:42:00,33.0,31.0,29.56,NW,315,5.0,12.0,93,0.00,,,0.01,,2013-03-20 00:42:00,
2013-03-19 20:52:00,33.0,31.0,29.57,NNW,327,4.0,15.0,93,0.00,,,0.01,,2013-03-20 00:52:00,
2013-03-19 21:03:00,32.0,30.0,29.60,WNW,288,5.0,16.0,93,0.00,,,0.01,,2013-03-20 01:03:00,
2013-03-19 21:12:00,32.0,30.0,29.60,WNW,296,5.0,18.0,93,0.00,,,0.01,,2013-03-20 01:12:00,
2013-03-19 21:22:00,32.0,30.0,29.60,WNW,296,5.0,18.0,93,0.00,,,0.01,,2013-03-20 01:22:00,
2013-03-19 21:32:00,32.0,30.0,29.61,North,360,6.0,13.0,93,0.00,,,0.01,,2013-03-20 01:32:00,
2013-03-19 21:42:00,32.0,30.0,29.61,North,360,6.0,13.0,93,0.00,,,0.01,,2013-03-20 01:42:00,
2013-03-19 21:52:00,32.0,30.0,29.62,WNW,282,6.0,16.0,93,0.00,,,0.01,,2013-03-20 01:52:00,
2013-03-19 22:02:00,32.0,30.0,29.63,North,5,7.0,20.0,93,0.00,,,0.01,,2013-03-20 02:02:00,
2013-03-19 22:12:00,32.0,30.0,29.63,North,5,7.0,20.0,93,0.00,,,0.01,,2013-03-20 02:12:00,
2013-03-19 22:22:00,32.0,30.0,29.63,West,280,8.0,15.0,93,0.00,,,0.01,,2013-03-20 02:22:00,
2013-03-19 22:32:00,32.0,30.0,29.63,NW,324,5.0,16.0,93,0.00,,,0.01,,2013-03-20 02:32:00,
2013-03-19 22:42:00,32.0,30.0,29.63,NW,324,5.0,16.0,93,0.00,,,0.01,,2013-03-20 02:42:00,
2013-03-19 22:52:00,32.0,30.0,29.62,WNW,294,8.0,19.0,93,0.00,,,0.01,,2013-03-20 02:52:00,
2013-03-19 23:02:00,31.0,29.0,29.62,NNW,328,8.0,15.0,93,0.00,,,0.01,,2013-03-20 03:02:00,
2013-03-19 23:12:00,31.0,29.0,29.62,NNW,348,8.0,13.0,93,0.00,,,0.01,,2013-03-20 03:12:00,
2013-03-19 23:22:00,31.0,29.0,29.62,NNW,348,8.0,13.0,93,0.00,,,0.01,,2013-03-20 03:22:00,
2013-03-19 23:34:00,30.0,28.0,29.63,WNW,298,7.0,17.0,93,0.00,,,0.01,,2013-03-20 03:34:00,
2013-03-19 23:42:00,30.0,28.0,29.63,WNW,298,7.0,17.0,93,0.00,,,0.01,,2013-03-20 03:42:00,
2013-03-19 23:53:00,30.0,28.0,29.64,NNW,339,7.0,19.0,93,0.00,,,0.01,,2013-03-20 03:53:00,